SCP
0 0 0 0 0 0 0 0 0 0 0 0 0 0 0 0 0 0 0 0 0 0 0 0 0 0 0 0 0 0 0 0 0 0 0 0 0 0 0 0 0 0 0
0 0 0 0 0 0 0 0 0 0 0 0 0 0 0 0 0 0 0 0 0 0 0 0 0 0 0 0 0 0 0 0 0 0 0 0 0 0 0 0 0 0 0
0 0 0 0 0 0 0 0 0 0 0 0 0 0 0 0 0 0 0 0 0 0 0 0 0 0 0 0 0 0 0 0 0 0 0 0 0 0 0 0 0 0 0
0 0 0 0 0 0 0 0 0 0 0 0 0 0 0 0 0 0 0 0 0 0 0 0 0 0 0 0 0 0 0 0 0 0 0 0 0 0 0 0 0 0 0
0 0 0 0 0 0 0 0 0 0 0 0 0 0 0 0 0 0 0 0 0 0 0 0 0 0 0 0 0 0 0 0 0 0 0 0 0 0 0 0 0 0 0
0 0 0 0 0 0 0 0 0 0 0 0 0 0 0 0 0 0 0 0 0 0 0 0 0 0 0 0 0 0 0 0 0 0 0 0 0 0 0 0 0 0 0
0 0 0 0 0 0 0 0 0 0 0 0 0 0 0 0 0 0 0 0 0 0 0 0 0 0 0 0 0 0 0 0 0 0 0 0 0 0 0 0 0 0 0
0 0 0 0 0 0 0 0 0 0 0 0 0 0 0 0 0 0 0 0 0 0 0 0 0 0 0 0 0 0 0 0 0 0 0 0 0 0 0 0 0 0 0
0 0 0 0 0 0 0 0 0 0 0 0 0 0 0 0 0 0 0 0 0 0 0 0 0 0 0 0 0 0 0 0 0 0 0 0 0 0 0 0 0 0 0
0 0 0 0 0 0 0 0 0 0 0 0 0 0 0 0 0 0 0 0 0 0 0 0 0 0 0 0 0 0 0 0 0 0 0 0 0 0 0 0 0 0 0
0 0 0 0 0 0 0 0 0 0 0 0 0 0 0 0 0 0 0 0 0 0 0 0 0 0 0 0 0 0 0 0 0 0 0 0 0 0 0 0 0 0 0
0 0 0 0 0 0 0 0 0 0 0 0 0 0 0 0 0 0 0 0 0 0 0 0 0 0 0 0 0 0 0 0 0 0 0 0 0 0 0 0 0 0 0
0 0 0 0 0 0 0 0 0 0 0 0 0 0 0 0 0 0 0 0 0 0 0 0 0 0 0 0 0 0 0 0 0 0 0 0 0 0 0 0 0 0 0
0 0 0 0 0 0 0 0 0 0 0 0 0 0 0 0 0 0 0 0 0 0 0 0 0 0 0 0 0 0 0 0 0 0 0 0 0 0 0 0 0 0 0
0 0 0 0 0 0 0 0 0 0 0 0 0 0 0 0 0 0 0 0 0 0 0 0 0 0 0 0 0 0 0 0 0 0 0 0 0 0 0 0 0 0 0
0 0 0 0 0 0 0 0 0 0 0 0 0 0 0 0 0 0 0 0 0 0 0 0 0 0 0 0 0 0 0 0 0 0 0 0 0 0 0 0 0 0 0
0 0 0 0 0 0 0 0 0 0 0 0 0 0 0 0 0 0 0 0 0 0 0 0 0 0 0 0 0 0 0 0 0 0 0 0 0 0 0 0 0 0 0
0 0 0 0 0 0 0 0 0 0 0 0 0 0 0 0 0 0 0 0 0 0 0 0 0 0 0 0 0 0 0 0 0 0 0 0 0 0 0 0 0 0 0
0 0 0 0 0 0 0 0 0 0 0 0 0 0 0 0 0 0 0 0 0 0 0 0 0 0 0 0 0 0 0 0 0 0 0 0 0 0 0 0 0 0 0
0 0 0 0 0 0 0 0 0 0 0 0 0 0 0 0 0 0 0 0 0 0 0 0 0 0 0 0 0 0 0 0 0 0 0 0 0 0 0 0 0 0 0
0 0 0 0 0 0 0 0 0 0 0 0 0 0 0 0 0 0 0 0 0 0 0 0 0 0 0 0 0 0 0 0 0 0 0 0 0 0 0 0 0 0 0
0 0 0 0 0 0 0 0 0 0 0 0 0 0 0 0 0 0 0 0 0 0 0 0 0 0 0 0 0 0 0 0 0 0 0 0 0 0 0 0 0 0 0
0 0 0 0 0 0 0 0 0 0 0 0 0 0 0 0 0 0 0 0 0 0 0 0 0 0 0 0 0 0 0 0 0 0 0 0 0 0 0 0 0 0 0
0 0 0 0 0 0 0 0 0 0 0 0 0 0 0 0 0 0 0 0 0 0 0 0 0 0 0 0 0 0 0 0 0 0 0 0 0 0 0 0 0 0 0
0 0 0 0 0 0 0 0 0 0 0 0 0 0 0 0 0 0 0 0 0 0 0 0 0 0 0 0 0 0 0 0 0 0 0 0 0 0 0 0 0 0 0
0 0 0 0 0 0 0 0 0 0 0 0 0 0 0 0 0 0 0 0 0 0 0 0 0 0 0 0 0 0 0 0 0 0 0 0 0 0 0 0 0 0 0
Wind_Speed
2 2 2 2 2 2 2 3 3 3 3 3 3 3 3 3 3 2 3 2 2 2 2 2 2 1 1 1 1 1 1 2 3 2 1 1 2 3 4 4 3 3 5
2 2 2 2 2 2 3 3 3 3 3 3 3 3 3 3 3 4 4 3 3 3 3 2 3 2 2 1 1 1 2 2 3 4 2 2 2 2 3 4 4 4 3
2 2 2 2 2 3 4 3 3 3 3 3 3 4 4 4 4 4 4 4 4 4 4 4 4 3 3 2 2 2 2 2 2 2 3 2 2 2 3 3 3 3 4
2 2 3 3 3 3 3 3 3 3 3 3 4 4 4 4 4 4 4 5 5 4 4 4 4 4 5 4 3 3 2 2 2 2 3 2 2 2 1 3 4 3 4
2 2 3 3 3 3 3 3 3 3 4 4 4 4 4 4 4 5 5 5 5 4 4 5 5 6 8 6 4 3 3 2 2 2 3 2 2 2 2 2 3 4 3
2 3 3 3 2 3 3 3 3 3 3 3 4 4 4 4 7 9 7 5 5 5 5 5 5 6 7 9 9 8 6 4 4 3 3 4 4 3 2 2 2 3 4
2 3 3 3 3 3 3 3 3 3 3 4 4 4 5 7 9 10 10 5 5 5 5 5 4 5 6 4 6 8 7 9 8 5 5 5 4 4 3 3 3 3 4
3 3 3 3 3 3 3 4 4 3 3 4 4 5 5 7 10 10 10 5 4 5 5 5 5 5 5 5 4 4 5 5 6 5 5 6 5 4 4 4 4 4 4
3 4 3 3 3 3 4 5 4 3 4 4 4 4 5 7 9 10 9 3 4 5 5 5 6 6 9 10 6 5 6 5 7 9 10 9 9 9 6 2 2 3 4
4 4 4 3 4 4 5 5 3 3 4 4 4 4 5 6 9 10 9 3 4 4 4 5 10 9 11 11 6 6 7 6 4 4 5 7 5 6 7 4 3 3 3
4 4 4 4 4 5 4 3 3 3 4 4 5 5 5 7 8 10 10 4 5 5 5 4 5 11 12 12 10 7 9 7 4 4 4 3 3 3 3 3 3 4 4
3 4 4 4 4 3 4 4 3 3 4 4 4 5 4 5 7 9 12 11 9 6 6 4 5 11 12 12 9 9 12 9 3 3 3 4 3 3 3 3 4 4 5
3 4 4 4 4 3 3 4 3 3 3 4 4 5 5 4 5 11 12 12 13 7 5 9 10 11 11 8 10 11 8 4 3 4 5 4 4 4 3 2 3 4 5
4 5 4 4 4 4 3 3 3 4 4 4 5 5 5 4 4 4 4 6 8 7 5 8 11 10 8 8 7 6 4 4 4 5 4 3 2 3 3 3 3 2 3
4 5 4 4 4 4 4 4 5 6 6 6 5 5 5 6 7 9 6 4 4 5 4 2 3 3 4 4 4 4 4 4 4 4 4 3 3 4 3 3 3 3 3
4 4 4 4 4 4 4 5 8 10 13 14 13 10 8 11 13 13 13 12 11 10 6 3 4 5 5 5 5 4 4 4 4 4 4 4 4 4 4 3 3 4 4
5 5 4 4 4 4 4 4 6 6 9 12 13 13 12 12 13 13 12 12 11 10 6 5 5 5 5 5 5 5 5 4 4 4 5 5 4 4 4 4 4 4 4
5 6 5 4 4 4 4 4 4 5 6 6 7 11 12 12 12 12 11 8 6 6 4 5 5 5 5 5 5 5 4 4 4 4 4 4 4 4 4 4 4 4 4
5 4 4 4 4 4 4 4 5 6 6 6 6 6 9 10 11 11 9 5 5 5 5 5 5 4 4 4 4 4 4 4 4 4 4 5 4 4 4 4 4 7 6
5 8 7 4 4 4 4 4 5 5 6 6 6 6 4 4 4 5 4 4 5 5 5 5 5 5 5 5 5 4 4 4 5 4 4 4 4 4 5 5 5 4 5
4 5 8 5 4 5 5 5 5 6 6 7 7 7 9 5 5 6 5 5 5 5 5 5 5 5 5 4 4 5 5 5 5 4 4 4 4 4 4 4 5 5 4
4 4 4 5 5 5 5 5 6 6 7 8 7 7 11 6 5 5 5 5 5 5 5 5 5 4 5 5 5 5 5 5 5 4 4 4 4 4 4 4 4 4 4
4 5 5 5 5 8 7 5 5 6 7 7 7 6 6 5 5 6 6 5 4 4 4 4 4 4 4 4 4 5 5 5 5 5 5 4 4 4 4 4 5 5 5
5 5 6 6 5 5 6 6 6 6 7 7 6 6 6 6 6 6 5 4 4 4 4 4 4 5 6 4 4 4 5 5 4 5 6 5 5 4 4 4 5 5 5
5 5 6 6 6 6 6 6 6 6 7 6 6 6 6 6 6 5 5 4 4 4 5 4 4 4 6 6 5 5 7 9 7 5 5 5 5 5 5 5 5 5 5
5 6 6 6 6 6 6 7 7 7 6 6 6 6 6 5 5 5 4 4 4 4 4 4 4 5 5 5 6 7 8 9 9 8 5 4 4 4 4 4 5 5 5
Wind_Direction
235 230 237 245 240 236 239 247 246 247 242 237 236 233 232 229 216 208 221 212 214 232 232 229 249 249 252 262 246 231 226 207 244 272 263 298 314 324 330 332 332 337 333
240 233 240 250 251 249 254 257 248 248 243 236 235 234 236 232 218 212 224 220 217 226 229 225 243 236 240 243 228 230 233 221 221 263 281 298 296 301 311 318 328 334 322
249 247 258 260 256 258 260 261 252 246 247 242 233 236 237 232 223 220 218 220 221 224 221 219 230 222 237 237 231 232 238 239 220 243 276 281 287 298 315 310 310 313 319
251 251 261 262 256 259 262 261 256 247 245 242 236 236 236 233 228 224 218 219 224 227 224 222 223 218 227 229 232 230 225 229 227 242 265 273 272 283 298 305 314 317 315
256 261 264 269 267 266 268 268 264 254 249 244 243 245 238 233 229 222 219 220 221 228 231 229 227 227 230 229 229 222 212 217 226 241 259 271 272 276 279 285 300 310 297
257 264 271 275 272 267 268 272 274 268 260 250 245 244 243 242 247 242 228 218 218 221 231 235 236 242 244 248 250 242 223 216 224 232 248 254 260 247 250 267 291 316 308
269 273 274 271 273 274 276 277 271 266 258 257 253 246 248 250 255 253 244 223 217 224 228 231 238 235 241 238 256 261 258 253 244 229 237 245 247 234 227 250 253 260 267
273 275 274 275 280 284 278 269 266 259 254 255 257 252 254 258 260 258 252 236 222 228 227 225 230 239 233 227 226 240 247 253 253 245 232 240 240 231 221 235 249 268 267
273 274 273 269 274 279 275 271 266 261 263 257 259 253 252 261 262 259 253 231 230 236 232 226 227 233 243 243 232 237 249 255 259 253 248 252 256 257 245 234 257 282 290
267 269 269 260 259 264 266 268 260 253 259 265 266 256 251 256 261 256 250 225 233 242 240 235 238 238 246 248 232 228 245 251 242 255 259 265 268 268 261 237 224 244 266
268 274 274 266 261 262 266 260 262 262 268 269 269 266 255 254 261 257 250 230 225 236 241 239 237 246 250 251 243 229 241 249 234 234 244 247 245 241 243 232 219 220 235
275 278 278 275 270 268 267 272 268 261 269 274 275 279 264 258 256 256 253 249 241 234 241 240 240 248 251 252 250 246 251 255 231 228 240 242 239 238 236 230 231 231 234
280 279 279 280 274 266 261 268 274 258 258 267 265 272 276 263 260 262 262 259 255 245 241 246 250 254 254 253 252 253 253 233 217 234 241 241 233 232 228 233 241 244 250
275 279 277 277 280 275 262 250 251 252 254 257 258 263 271 270 261 255 253 260 259 253 247 252 255 255 249 247 252 251 231 216 220 234 239 236 225 224 228 225 238 250 263
274 275 276 270 270 274 265 249 249 243 239 247 251 249 259 269 262 259 257 248 240 241 245 239 233 235 233 233 233 231 224 222 230 222 228 234 235 237 238 224 225 234 247
271 273 270 270 270 267 274 283 260 255 265 263 259 255 256 260 273 273 268 264 260 256 251 235 237 235 236 234 231 230 224 224 224 222 225 228 233 236 241 233 229 235 250
255 266 267 264 265 265 264 272 290 288 269 267 267 266 264 270 273 273 272 267 261 256 244 236 236 236 237 234 229 226 228 225 221 222 225 226 229 232 235 239 240 245 252
257 261 261 258 258 260 260 262 266 280 292 289 276 273 273 274 275 274 272 268 258 246 234 237 237 235 234 231 228 227 228 223 222 225 226 225 224 227 232 236 236 241 253
260 260 256 256 255 256 259 262 264 267 272 280 287 284 275 276 277 272 267 248 245 246 241 239 235 234 232 229 226 223 222 223 222 222 225 225 222 222 231 234 238 252 256
258 263 264 259 259 260 257 259 263 266 269 271 272 274 279 275 269 266 250 241 243 246 242 240 236 231 228 226 222 220 222 224 222 223 226 223 219 220 230 234 237 243 248
258 265 268 266 256 256 256 258 260 262 265 267 267 267 268 265 261 260 256 249 247 247 243 240 237 230 225 221 216 217 221 224 221 220 223 221 217 223 228 231 234 239 247
251 256 256 256 260 259 260 256 259 262 265 268 273 274 274 266 257 257 255 253 248 245 241 238 235 227 219 213 211 212 219 226 222 217 219 220 218 223 226 229 234 242 248
250 257 261 260 259 269 272 264 263 266 268 269 272 273 269 261 258 256 255 253 249 247 241 233 231 227 219 213 209 208 217 224 220 212 214 217 218 220 223 230 235 244 251
246 252 260 265 265 262 265 268 267 267 268 270 270 268 266 263 262 260 256 252 248 246 238 231 228 227 223 219 217 216 219 221 215 214 212 213 216 220 223 231 238 244 251
246 253 259 263 265 267 268 268 268 267 268 268 268 268 267 265 264 262 255 249 247 246 242 233 228 225 223 221 222 223 231 232 228 215 207 209 215 220 228 235 241 249 256
250 255 258 262 263 264 267 269 268 267 266 266 265 264 264 263 263 261 255 249 247 245 239 232 227 225 225 225 227 231 237 238 236 229 218 208 213 225 230 239 241 250 257